Tracking 35275 objects as of 8-Sep-2026
HD Live streaming from Space Station
objects crossing your sky now

STARLINK-33986

Track STARLINK-33986 now!
10-day predictions
STARLINK-33986 is classified as:


NORAD ID: 63870
Int'l Code: 2025-094G
Launch date: May 10, 2025
Source: United States (US)
Launch site: AIR FORCE WESTERN TEST RANGE (AFWTR)
Your satellite tracking list
Your tracking list is empty




NASA's NSSDC Master Catalog

Two Line Element Set (TLE):
1 63870U 25094G   26251.58335648  .00067130  00000-0  23221-2 0  9991
2 63870  70.0000 132.4913 0003233 269.1982 306.6290 15.29534492  5773
Source of the keplerian elements: AFSPC